| time (UTC) | temp F | wind direction | speed knots | gust knots | rain 1hr in | rain 24hr in | rain mn in | humidity % | barometer mb |
| 20260507183145 | 76 | 31 | 2.6 | 6.1 | 0.00 | 0.00 | 0.00 | 59 | 1016.1 |
| 20260507182642 | 75 | 69 | 2.6 | 8.7 | 0.00 | 0.00 | 0.00 | 60 | 1016.3 |
| 20260507182137 | 75 | 139 | 6.1 | 8.7 | 0.00 | 0.00 | 0.00 | 60 | 1016.1 |
| 20260507181634 | 74 | 224 | 4.3 | 7.8 | 0.00 | 0.00 | 0.00 | 62 | 1016.2 |
| 20260507181131 | 74 | 283 | 7.8 | 11.3 | 0.00 | 0.00 | 0.00 | 61 | 1016.4 |
| 20260507180627 | 74 | 230 | 3.5 | 7.0 | 0.00 | 0.00 | 0.00 | 61 | 1016.4 |
| 20260507180124 | 74 | 160 | 3.5 | 7.0 | 0.00 | 0.00 | 0.00 | 63 | 1016.2 |
| 20260507175620 | 73 | 201 | 2.6 | 7.8 | 0.00 | 0.00 | 0.00 | 64 | 1016.7 |
| 20260507175117 | 73 | 220 | 4.3 | 9.6 | 0.00 | 0.00 | 0.00 | 63 | 1016.6 |
| 20260507174614 | 73 | 242 | 5.2 | 7.8 | 0.00 | 0.00 | 0.00 | 63 | 1016.7 |
| 20260507174112 | 73 | 7 | 1.7 | 6.1 | 0.00 | 0.00 | 0.00 | 64 | 1016.7 |
| 20260507173609 | 73 | 218 | 6.1 | 7.8 | 0.00 | 0.00 | 0.00 | 63 | 1016.6 |
| 20260507173106 | 72 | 325 | 1.7 | 7.0 | 0.00 | 0.00 | 0.00 | 65 | 1016.7 |
| 20260507172602 | 71 | 228 | 1.7 | 5.2 | 0.00 | 0.00 | 0.00 | 65 | 1016.7 |
| 20260507172100 | 70 | 125 | 2.6 | 6.1 | 0.00 | 0.00 | 0.00 | 67 | 1016.6 |
| 20260507171554 | 71 | 90 | 3.5 | 5.2 | 0.00 | 0.00 | 0.00 | 66 | 1016.6 |
| 20260507171052 | 70 | 208 | 3.5 | 7.0 | 0.00 | 0.00 | 0.00 | 66 | 1016.7 |
| 20260507170549 | 69 | 108 | 2.6 | 6.1 | 0.00 | 0.00 | 0.00 | 67 | 1016.8 |
| 20260507170046 | 70 | 230 | 5.2 | 7.8 | 0.00 | 0.00 | 0.00 | 68 | 1016.9 |
| 20260507165541 | 70 | 267 | 2.6 | 5.2 | 0.00 | 0.00 | 0.00 | 68 | 1016.8 |
| 20260507165038 | 69 | 289 | 1.7 | 5.2 | 0.00 | 0.00 | 0.00 | 69 | 1016.9 |
| 20260507164534 | 69 | 230 | 2.6 | 7.8 | 0.00 | 0.00 | 0.00 | 69 | 1016.8 |
| 20260507164032 | 68 | 202 | 2.6 | 5.2 | 0.00 | 0.00 | 0.00 | 70 | 1016.8 |
| 20260507163529 | 67 | 89 | 2.6 | 6.1 | 0.00 | 0.00 | 0.00 | 70 | 1016.9 |
| 20260507163027 | 67 | 194 | 3.5 | 6.1 | 0.00 | 0.00 | 0.00 | 71 | 1017.0 |
| 20260507162526 | 67 | 266 | 2.6 | 5.2 | 0.00 | 0.00 | 0.00 | 71 | 1017.0 |
| 20260507162024 | 66 | 229 | 4.3 | 6.1 | 0.00 | 0.00 | 0.00 | 72 | 1017.0 |
| 20260507161520 | 66 | 168 | 2.6 | 6.1 | 0.00 | 0.00 | 0.00 | 73 | 1016.7 |
| 20260507161017 | 66 | 205 | 4.3 | 7.8 | 0.00 | 0.00 | 0.00 | 74 | 1016.8 |
| 20260507160513 | 65 | 218 | 2.6 | 6.1 | 0.00 | 0.00 | 0.00 | 74 | 1017.1 |
| 20260507160010 | 65 | 272 | 4.3 | 6.1 | 0.00 | 0.00 | 0.00 | 74 | 1017.2 |
| 20260507155505 | 65 | 218 | 4.3 | 6.1 | 0.00 | 0.00 | 0.00 | 74 | 1016.9 |
| 20260507155003 | 64 | 29 | 2.6 | 6.1 | 0.00 | 0.00 | 0.00 | 75 | 1017.0 |
| 20260507154459 | 64 | 247 | 3.5 | 6.1 | 0.00 | 0.00 | 0.00 | 76 | 1017.0 |
| 20260507153956 | 64 | 205 | 2.6 | 5.2 | 0.00 | 0.00 | 0.00 | 77 | 1017.3 |
| 20260507153453 | 63 | 222 | 2.6 | 5.2 | 0.00 | 0.00 | 0.00 | 77 | 1017.1 |
| 20260507152949 | 63 | 255 | 1.7 | 5.2 | 0.00 | 0.00 | 0.00 | 78 | 1017.2 |
| 20260507152445 | 63 | 1 | 1.7 | 4.3 | 0.00 | 0.00 | 0.00 | 78 | 1017.2 |
| 20260507151941 | 63 | 255 | 1.7 | 5.2 | 0.00 | 0.00 | 0.00 | 78 | 1017.2 |
| 20260507151438 | 64 | 145 | 1.7 | 2.6 | 0.00 | 0.00 | 0.00 | 75 | 1017.2 |
| 20260507150935 | 62 | 87 | 0.0 | 1.7 | 0.00 | 0.00 | 0.00 | 76 | 1017.1 |
| 20260507150432 | 63 | 94 | 0.0 | 1.7 | 0.00 | 0.00 | 0.00 | 75 | 1017.1 |
| 20260507145928 | 62 | 121 | 0.9 | 0.9 | 0.00 | 0.00 | 0.00 | 77 | 1017.2 |
| 20260507145424 | 61 | 97 | 0.0 | 0.0 | 0.00 | 0.00 | 0.00 | 79 | 1017.3 |
| 20260507144921 | 61 | 95 | 0.0 | 0.9 | 0.00 | 0.00 | 0.00 | 80 | 1017.2 |
| 20260507144418 | 60 | 98 | 0.9 | 0.9 | 0.00 | 0.00 | 0.00 | 83 | 1017.3 |
| 20260507143915 | 58 | 97 | 0.0 | 0.0 | 0.00 | 0.00 | 0.00 | 87 | 1017.0 |
| 20260507143412 | 57 | 95 | 0.0 | 0.0 | 0.00 | 0.00 | 0.00 | 89 | 1016.9 |
| 20260507142909 | 56 | 93 | 0.0 | 0.0 | 0.00 | 0.00 | 0.00 | 91 | 1017.1 |
| 20260507142404 | 55 | 92 | 0.0 | 0.0 | 0.00 | 0.00 | 0.00 | 92 | 1017.0 |
| 20260507141902 | 55 | 232 | 0.0 | 0.0 | 0.00 | 0.00 | 0.00 | 92 | 1017.2 |
| 20260507141358 | 55 | 232 | 0.0 | 0.0 | 0.00 | 0.00 | 0.00 | 93 | 1016.9 |
| 20260507140854 | 55 | 231 | 0.0 | 0.0 | 0.00 | 0.00 | 0.00 | 93 | 1017.1 |
| 20260507140351 | 55 | 232 | 0.0 | 0.0 | 0.00 | 0.00 | 0.00 | 93 | 1016.9 |
| 20260507135849 | 54 | 233 | 0.0 | 0.0 | 0.00 | 0.00 | 0.00 | 93 | 1016.9 |
| 20260507135346 | 55 | 234 | 0.9 | 2.6 | 0.00 | 0.00 | 0.00 | 94 | 1016.7 |
| 20260507134843 | 54 | 228 | 0.0 | 4.3 | 0.00 | 0.00 | 0.00 | 95 | 1016.9 |
| 20260507134339 | 53 | 227 | 0.0 | 0.0 | 0.00 | 0.00 | 0.00 | 95 | 1016.7 |
| 20260507133835 | 53 | 227 | 0.0 | 0.0 | 0.00 | 0.00 | 0.00 | 95 | 1016.8 |
| 20260507133331 | 53 | 226 | 0.0 | 0.0 | 0.00 | 0.00 | 0.00 | 95 | 1016.8 |
| 20260507132830 | 53 | 226 | 0.0 | 0.0 | 0.00 | 0.00 | 0.00 | 95 | 1016.8 |
| 20260507132325 | 52 | 225 | 0.0 | 0.0 | 0.00 | 0.00 | 0.00 | 95 | 1016.9 |
| 20260507131823 | 52 | 223 | 0.0 | 0.0 | 0.00 | 0.00 | 0.00 | 95 | 1016.7 |
| 20260507131319 | 51 | 225 | 0.0 | 0.0 | 0.00 | 0.00 | 0.00 | 95 | 1016.8 |
| 20260507130816 | 51 | 224 | 0.0 | 0.9 | 0.00 | 0.00 | 0.00 | 95 | 1016.8 |
| 20260507130314 | 51 | 229 | 0.0 | 0.0 | 0.00 | 0.00 | 0.00 | 95 | 1016.7 |
| 20260507125813 | 51 | 229 | 0.9 | 1.7 | 0.00 | 0.00 | 0.00 | 95 | 1016.5 |
| 20260507125309 | 51 | 226 | 0.0 | 0.0 | 0.00 | 0.00 | 0.00 | 95 | 1016.3 |
| 20260507124807 | 51 | 229 | 0.0 | 0.0 | 0.00 | 0.00 | 0.00 | 95 | 1016.3 |
| 20260507124303 | 51 | 227 | 0.0 | 0.0 | 0.00 | 0.00 | 0.00 | 95 | 1016.2 |
| 20260507123802 | 51 | 225 | 0.9 | 1.7 | 0.00 | 0.00 | 0.00 | 95 | 1016.5 |
| 20260507123259 | 51 | 224 | 0.0 | 0.0 | 0.00 | 0.00 | 0.00 | 95 | 1016.4 |
| 20260507122754 | 51 | 224 | 0.0 | 0.0 | 0.00 | 0.00 | 0.00 | 95 | 1016.5 |
| 20260507122250 | 51 | 225 | 0.0 | 0.9 | 0.00 | 0.00 | 0.00 | 95 | 1016.4 |
| 20260507121746 | 51 | 222 | 0.0 | 0.0 | 0.00 | 0.00 | 0.00 | 95 | 1016.4 |
| 20260507121242 | 51 | 228 | 0.0 | 0.0 | 0.00 | 0.00 | 0.00 | 95 | 1016.6 |
| 20260507120738 | 51 | 225 | 0.0 | 0.0 | 0.00 | 0.00 | 0.00 | 95 | 1016.5 |
| 20260507120235 | 51 | 223 | 0.0 | 0.0 | 0.00 | 0.00 | 0.00 | 95 | 1016.3 |
| 20260507115731 | 51 | 224 | 0.0 | 0.0 | 0.00 | 0.00 | 0.00 | 95 | 1016.6 |
| 20260507115227 | 51 | 224 | 0.0 | 0.0 | 0.00 | 0.00 | 0.00 | 95 | 1016.4 |
| 20260507114723 | 51 | 223 | 0.0 | 0.0 | 0.00 | 0.00 | 0.00 | 95 | 1016.5 |
| 20260507114221 | 52 | 224 | 0.0 | 0.9 | 0.00 | 0.00 | 0.00 | 95 | 1016.3 |
| 20260507113718 | 52 | 222 | 0.0 | 0.0 | 0.00 | 0.00 | 0.00 | 95 | 1016.6 |
| 20260507113215 | 52 | 223 | 1.7 | 1.7 | 0.00 | 0.00 | 0.00 | 95 | 1016.7 |
| 20260507112712 | 52 | 223 | 0.0 | 0.0 | 0.00 | 0.00 | 0.00 | 95 | 1016.8 |
| 20260507112209 | 52 | 224 | 0.0 | 0.9 | 0.00 | 0.00 | 0.00 | 94 | 1016.8 |
| 20260507111706 | 52 | 225 | 0.0 | 0.0 | 0.00 | 0.00 | 0.00 | 94 | 1016.8 |
| 20260507111203 | 52 | 226 | 0.0 | 0.0 | 0.00 | 0.00 | 0.00 | 94 | 1016.9 |
| 20260507110659 | 52 | 240 | 0.0 | 0.0 | 0.00 | 0.00 | 0.00 | 94 | 1016.8 |
| 20260507110156 | 52 | 248 | 0.0 | 0.0 | 0.00 | 0.00 | 0.00 | 94 | 1016.8 |
| 20260507105653 | 52 | 249 | 0.9 | 1.7 | 0.00 | 0.00 | 0.00 | 94 | 1017.0 |
| 20260507105149 | 52 | 247 | 0.0 | 0.0 | 0.00 | 0.00 | 0.00 | 94 | 1017.0 |
| 20260507104647 | 52 | 247 | 0.0 | 0.0 | 0.00 | 0.00 | 0.00 | 94 | 1016.8 |
| 20260507104142 | 52 | 247 | 0.9 | 0.9 | 0.00 | 0.00 | 0.00 | 94 | 1016.8 |
| 20260507103639 | 52 | 247 | 0.9 | 0.9 | 0.00 | 0.00 | 0.00 | 94 | 1016.9 |
| 20260507103136 | 52 | 253 | 0.9 | 0.9 | 0.00 | 0.00 | 0.00 | 94 | 1016.9 |
| 20260507102632 | 52 | 283 | 0.9 | 0.9 | 0.00 | 0.00 | 0.00 | 94 | 1017.2 |
| 20260507102128 | 52 | 285 | 0.0 | 0.0 | 0.00 | 0.00 | 0.00 | 94 | 1017.1 |
| 20260507101624 | 52 | 276 | 0.9 | 1.7 | 0.00 | 0.00 | 0.00 | 94 | 1017.1 |
| 20260507101120 | 52 | 269 | 0.9 | 1.7 | 0.00 | 0.00 | 0.00 | 93 | 1017.1 |
| 20260507100618 | 52 | 280 | 0.9 | 1.7 | 0.00 | 0.00 | 0.00 | 93 | 1017.2 |
| 20260507100116 | 52 | 284 | 0.0 | 0.9 | 0.00 | 0.00 | 0.00 | 93 | 1017.2 |
| 20260507095614 | 53 | 260 | 0.9 | 1.7 | 0.00 | 0.00 | 0.00 | 93 | 1017.5 |
| 20260507095110 | 52 | 261 | 1.7 | 1.7 | 0.00 | 0.00 | 0.00 | 93 | 1017.2 |
| 20260507094606 | 52 | 278 | 0.9 | 1.7 | 0.00 | 0.00 | 0.00 | 93 | 1017.2 |
| 20260507094103 | 53 | 280 | 0.9 | 0.9 | 0.00 | 0.00 | 0.00 | 93 | 1017.1 |
| 20260507093601 | 53 | 276 | 0.9 | 0.9 | 0.00 | 0.00 | 0.00 | 93 | 1017.3 |
| 20260507093059 | 53 | 282 | 0.9 | 0.9 | 0.00 | 0.00 | 0.00 | 93 | 1017.2 |
| 20260507092555 | 53 | 270 | 1.7 | 1.7 | 0.00 | 0.00 | 0.00 | 93 | 1017.2 |
| 20260507092052 | 53 | 281 | 0.9 | 1.7 | 0.00 | 0.00 | 0.00 | 93 | 1017.4 |
| 20260507091549 | 53 | 280 | 0.9 | 1.7 | 0.00 | 0.00 | 0.00 | 92 | 1017.4 |
| 20260507091045 | 53 | 270 | 0.9 | 1.7 | 0.00 | 0.00 | 0.00 | 92 | 1017.3 |
| 20260507090541 | 53 | 290 | 0.0 | 0.9 | 0.00 | 0.00 | 0.00 | 92 | 1017.6 |
| 20260507090038 | 53 | 280 | 0.9 | 0.9 | 0.00 | 0.00 | 0.00 | 92 | 1017.6 |
| 20260507085535 | 53 | 270 | 1.7 | 1.7 | 0.00 | 0.00 | 0.00 | 92 | 1017.3 |
| 20260507085032 | 53 | 277 | 0.9 | 1.7 | 0.00 | 0.00 | 0.00 | 91 | 1017.6 |
| 20260507084528 | 54 | 286 | 0.0 | 0.9 | 0.00 | 0.00 | 0.00 | 91 | 1017.5 |
| 20260507084025 | 54 | 286 | 0.9 | 0.9 | 0.00 | 0.00 | 0.00 | 91 | 1017.7 |
| 20260507083521 | 54 | 284 | 0.9 | 0.9 | 0.00 | 0.00 | 0.00 | 90 | 1017.7 |
| 20260507083019 | 54 | 275 | 0.9 | 1.7 | 0.00 | 0.00 | 0.00 | 90 | 1017.7 |
| 20260507082515 | 54 | 281 | 0.9 | 0.9 | 0.00 | 0.00 | 0.00 | 90 | 1017.7 |
| 20260507082011 | 54 | 282 | 0.9 | 1.7 | 0.00 | 0.00 | 0.00 | 90 | 1017.8 |
| 20260507081507 | 54 | 287 | 0.0 | 0.9 | 0.00 | 0.00 | 0.00 | 89 | 1017.8 |
| 20260507081004 | 55 | 277 | 0.9 | 0.9 | 0.00 | 0.00 | 0.00 | 89 | 1017.9 |
| 20260507080500 | 55 | 273 | 1.7 | 1.7 | 0.00 | 0.00 | 0.00 | 89 | 1017.8 |
| 20260507075955 | 55 | 260 | 1.7 | 1.7 | 0.00 | 0.00 | 0.00 | 89 | 1017.8 |
| 20260507075452 | 55 | 278 | 0.9 | 1.7 | 0.00 | 0.00 | 0.00 | 89 | 1017.9 |
| 20260507074949 | 56 | 198 | 1.7 | 2.6 | 0.00 | 0.00 | 0.00 | 88 | 1017.7 |
| 20260507074446 | 55 | 228 | 2.6 | 2.6 | 0.00 | 0.00 | 0.00 | 90 | 1017.7 |
| 20260507073944 | 55 | 258 | 1.7 | 1.7 | 0.00 | 0.00 | 0.00 | 89 | 1017.9 |
| 20260507073440 | 55 | 242 | 1.7 | 1.7 | 0.00 | 0.00 | 0.00 | 89 | 1017.8 |
| 20260507072936 | 55 | 277 | 0.9 | 1.7 | 0.00 | 0.00 | 0.00 | 89 | 1018.1 |
| 20260507072434 | 55 | 266 | 1.7 | 1.7 | 0.00 | 0.00 | 0.00 | 89 | 1018.0 |
| 20260507071931 | 55 | 282 | 0.9 | 1.7 | 0.00 | 0.00 | 0.00 | 88 | 1018.1 |
| 20260507071428 | 55 | 255 | 1.7 | 2.6 | 0.00 | 0.00 | 0.00 | 88 | 1018.0 |
| 20260507070925 | 55 | 253 | 0.9 | 1.7 | 0.00 | 0.00 | 0.00 | 88 | 1018.0 |
| 20260507070423 | 55 | 280 | 0.9 | 1.7 | 0.00 | 0.00 | 0.00 | 88 | 1018.0 |
| 20260507065919 | 55 | 273 | 0.9 | 1.7 | 0.00 | 0.00 | 0.00 | 87 | 1018.1 |
| 20260507065416 | 56 | 273 | 0.9 | 0.9 | 0.00 | 0.00 | 0.00 | 87 | 1018.1 |
| 20260507064913 | 56 | 243 | 1.7 | 1.7 | 0.00 | 0.00 | 0.00 | 87 | 1018.0 |
| 20260507064411 | 56 | 248 | 1.7 | 1.7 | 0.00 | 0.00 | 0.00 | 88 | 1018.3 |
| 20260507063909 | 56 | 278 | 0.9 | 1.7 | 0.00 | 0.00 | 0.00 | 87 | 1018.0 |
| 20260507063406 | 56 | 244 | 1.7 | 1.7 | 0.00 | 0.00 | 0.00 | 87 | 1018.1 |
| 20260507062903 | 56 | 250 | 1.7 | 1.7 | 0.00 | 0.00 | 0.00 | 87 | 1018.0 |
| 20260507062359 | 56 | 281 | 0.0 | 0.9 | 0.00 | 0.00 | 0.00 | 87 | 1018.0 |
| 20260507061857 | 56 | 274 | 0.9 | 1.7 | 0.00 | 0.00 | 0.00 | 86 | 1017.9 |
| 20260507061355 | 56 | 283 | 0.9 | 1.7 | 0.00 | 0.00 | 0.00 | 86 | 1018.0 |
| 20260507060853 | 56 | 280 | 0.9 | 0.9 | 0.00 | 0.00 | 0.00 | 86 | 1018.0 |
| 20260507060349 | 56 | 254 | 1.7 | 1.7 | 0.00 | 0.00 | 0.00 | 86 | 1018.0 |
| 20260507055846 | 56 | 281 | 0.9 | 1.7 | 0.00 | 0.00 | 0.00 | 86 | 1018.0 |
| 20260507055341 | 57 | 282 | 0.0 | 0.9 | 0.00 | 0.00 | 0.00 | 86 | 1017.9 |
| 20260507054838 | 57 | 261 | 0.9 | 2.6 | 0.00 | 0.00 | 0.00 | 86 | 1018.0 |
| 20260507054334 | 57 | 271 | 0.9 | 1.7 | 0.00 | 0.00 | 0.00 | 85 | 1018.0 |
| 20260507053832 | 57 | 277 | 0.9 | 0.9 | 0.00 | 0.00 | 0.00 | 84 | 1018.1 |
| 20260507053329 | 59 | 283 | 0.0 | 0.9 | 0.00 | 0.00 | 0.00 | 84 | 1018.0 |
| 20260507052828 | 59 | 280 | 0.9 | 0.9 | 0.00 | 0.00 | 0.00 | 84 | 1018.3 |
| 20260507052324 | 59 | 262 | 1.7 | 2.6 | 0.00 | 0.00 | 0.00 | 84 | 1018.2 |
| 20260507051822 | 59 | 261 | 1.7 | 2.6 | 0.00 | 0.00 | 0.00 | 85 | 1018.0 |
| 20260507051320 | 58 | 216 | 2.6 | 4.3 | 0.00 | 0.00 | 0.00 | 85 | 1018.2 |
| 20260507050816 | 59 | 241 | 3.5 | 5.2 | 0.00 | 0.00 | 0.00 | 85 | 1018.2 |
| 20260507050312 | 59 | 257 | 2.6 | 4.3 | 0.00 | 0.00 | 0.00 | 85 | 1018.0 |
| 20260507045810 | 59 | 246 | 1.7 | 4.3 | 0.00 | 0.00 | 0.00 | 85 | 1018.0 |
| 20260507045307 | 59 | 150 | 3.5 | 5.2 | 0.00 | 0.00 | 0.00 | 84 | 1018.0 |
| 20260507044803 | 59 | 181 | 2.6 | 4.3 | 0.00 | 0.00 | 0.00 | 84 | 1018.0 |
| 20260507044259 | 59 | 232 | 1.7 | 6.1 | 0.00 | 0.00 | 0.00 | 84 | 1017.8 |
| 20260507043755 | 59 | 213 | 4.3 | 6.1 | 0.00 | 0.00 | 0.00 | 83 | 1017.8 |
| 20260507043252 | 59 | 248 | 3.5 | 6.1 | 0.00 | 0.00 | 0.00 | 83 | 1017.8 |
| 20260507042749 | 59 | 222 | 3.5 | 5.2 | 0.00 | 0.00 | 0.00 | 83 | 1017.6 |
| 20260507042244 | 59 | 182 | 2.6 | 6.1 | 0.00 | 0.00 | 0.00 | 82 | 1017.7 |
| 20260507041742 | 59 | 223 | 4.3 | 7.0 | 0.00 | 0.00 | 0.00 | 81 | 1017.6 |
| 20260507041238 | 60 | 242 | 4.3 | 7.0 | 0.00 | 0.00 | 0.00 | 81 | 1017.7 |
| 20260507040735 | 60 | 249 | 3.5 | 6.1 | 0.00 | 0.00 | 0.00 | 80 | 1017.8 |
| 20260507040231 | 60 | 273 | 5.2 | 8.7 | 0.00 | 0.00 | 0.00 | 79 | 1017.7 |
| 20260507035727 | 60 | 214 | 3.5 | 7.8 | 0.00 | 0.00 | 0.00 | 79 | 1017.7 |
| 20260507035223 | 60 | 276 | 4.3 | 6.1 | 0.00 | 0.00 | 0.00 | 78 | 1017.5 |
| 20260507034720 | 60 | 172 | 7.8 | 9.6 | 0.00 | 0.00 | 0.00 | 77 | 1017.5 |
| 20260507034217 | 60 | 169 | 3.5 | 7.8 | 0.00 | 0.00 | 0.00 | 77 | 1017.3 |
| 20260507033716 | 61 | 203 | 4.3 | 8.7 | 0.00 | 0.00 | 0.00 | 76 | 1017.1 |
| 20260507033213 | 61 | 123 | 5.2 | 7.8 | 0.00 | 0.00 | 0.00 | 75 | 1017.2 |
| 20260507032710 | 61 | 252 | 4.3 | 7.8 | 0.00 | 0.00 | 0.00 | 74 | 1017.0 |
| 20260507032206 | 61 | 145 | 4.3 | 7.8 | 0.00 | 0.00 | 0.00 | 73 | 1017.1 |
| 20260507031703 | 62 | 213 | 4.3 | 7.0 | 0.00 | 0.00 | 0.00 | 73 | 1016.9 |
| 20260507031159 | 62 | 216 | 5.2 | 8.7 | 0.00 | 0.00 | 0.00 | 72 | 1016.9 |
| 20260507030656 | 62 | 159 | 2.6 | 7.0 | 0.00 | 0.00 | 0.00 | 71 | 1016.9 |
| 20260507030154 | 62 | 233 | 2.6 | 7.0 | 0.00 | 0.00 | 0.00 | 70 | 1017.0 |
| 20260507025651 | 63 | 232 | 6.1 | 7.8 | 0.00 | 0.00 | 0.00 | 69 | 1016.9 |
| 20260507025148 | 63 | 263 | 3.5 | 7.8 | 0.00 | 0.00 | 0.00 | 69 | 1016.9 |
| 20260507024646 | 63 | 45 | 3.5 | 6.1 | 0.00 | 0.00 | 0.00 | 68 | 1016.8 |
| 20260507024143 | 64 | 224 | 2.6 | 7.0 | 0.00 | 0.00 | 0.00 | 67 | 1016.8 |
| 20260507023638 | 64 | 237 | 4.3 | 6.1 | 0.00 | 0.00 | 0.00 | 66 | 1016.7 |
| 20260507023136 | 64 | 243 | 2.6 | 8.7 | 0.00 | 0.00 | 0.00 | 66 | 1016.8 |
| 20260507022633 | 65 | 172 | 6.1 | 7.8 | 0.00 | 0.00 | 0.00 | 66 | 1016.7 |
| 20260507022128 | 65 | 235 | 5.2 | 7.8 | 0.00 | 0.00 | 0.00 | 65 | 1016.6 |
| 20260507021625 | 65 | 250 | 5.2 | 8.7 | 0.00 | 0.00 | 0.00 | 65 | 1016.6 |
| 20260507021120 | 66 | 193 | 6.1 | 8.7 | 0.00 | 0.00 | 0.00 | 64 | 1016.3 |
| 20260507020619 | 66 | 199 | 2.6 | 12.2 | 0.00 | 0.00 | 0.00 | 64 | 1016.3 |
| 20260507020115 | 66 | 59 | 4.3 | 11.3 | 0.00 | 0.00 | 0.00 | 64 | 1016.4 |
| 20260507015614 | 66 | 164 | 6.1 | 11.3 | 0.00 | 0.00 | 0.00 | 64 | 1016.3 |
| 20260507015111 | 66 | 204 | 2.6 | 13.9 | 0.00 | 0.00 | 0.00 | 64 | 1016.1 |
| 20260507014607 | 67 | 237 | 7.0 | 12.2 | 0.00 | 0.00 | 0.00 | 64 | 1016.1 |
| 20260507014103 | 67 | 199 | 4.3 | 12.2 | 0.00 | 0.00 | 0.00 | 64 | 1016.1 |
| 20260507013600 | 67 | 245 | 3.5 | 9.6 | 0.00 | 0.00 | 0.00 | 64 | 1016.1 |
| 20260507013057 | 67 | 178 | 2.6 | 9.6 | 0.00 | 0.00 | 0.00 | 63 | 1016.1 |
| 20260507012554 | 68 | 57 | 4.3 | 11.3 | 0.00 | 0.00 | 0.00 | 63 | 1016.0 |
| 20260507012049 | 68 | 223 | 6.1 | 8.7 | 0.00 | 0.00 | 0.00 | 63 | 1015.7 |
| 20260507011548 | 68 | 237 | 6.1 | 8.7 | 0.00 | 0.00 | 0.00 | 63 | 1015.8 |
| 20260507011044 | 69 | 154 | 2.6 | 12.2 | 0.00 | 0.00 | 0.00 | 62 | 1016.0 |
| 20260507010538 | 69 | 190 | 6.1 | 9.6 | 0.00 | 0.00 | 0.00 | 61 | 1015.8 |
| 20260507010035 | 70 | 208 | 5.2 | 11.3 | 0.00 | 0.00 | 0.00 | 61 | 1016.0 |
| 20260507005533 | 70 | 221 | 7.8 | 9.6 | 0.00 | 0.00 | 0.00 | 62 | 1015.8 |
| 20260507005028 | 70 | 213 | 5.2 | 12.2 | 0.00 | 0.00 | 0.00 | 61 | 1015.6 |
| 20260507004526 | 71 | 201 | 4.3 | 8.7 | 0.00 | 0.00 | 0.00 | 61 | 1015.7 |
| 20260507004023 | 71 | 210 | 2.6 | 13.0 | 0.00 | 0.00 | 0.00 | 61 | 1015.6 |
| 20260507003519 | 71 | 233 | 5.2 | 7.8 | 0.00 | 0.00 | 0.00 | 61 | 1015.6 |
| 20260507003014 | 71 | 75 | 5.2 | 7.8 | 0.00 | 0.00 | 0.00 | 60 | 1015.7 |
| 20260507002510 | 71 | 139 | 4.3 | 9.6 | 0.00 | 0.00 | 0.00 | 61 | 1015.6 |
| 20260507002007 | 72 | 268 | 7.8 | 13.0 | 0.00 | 0.00 | 0.00 | 60 | 1015.5 |
| 20260507001503 | 72 | 355 | 5.2 | 8.7 | 0.00 | 0.00 | 0.00 | 60 | 1015.6 |
| 20260507001001 | 72 | 196 | 4.3 | 9.6 | 0.00 | 0.00 | 0.00 | 59 | 1015.3 |
| 20260507000456 | 72 | 128 | 6.1 | 9.6 | 0.00 | 0.00 | 0.00 | 59 | 1015.2 |
| 20260506235952 | 73 | 119 | 4.3 | 7.8 | 0.00 | 0.00 | 0.00 | 59 | 1015.2 |
| 20260506235450 | 73 | 197 | 6.1 | 8.7 | 0.00 | 0.00 | 0.00 | 58 | 1015.2 |
| 20260506234946 | 74 | 254 | 4.3 | 9.6 | 0.00 | 0.00 | 0.00 | 58 | 1015.3 |
| 20260506234443 | 73 | 140 | 3.5 | 8.7 | 0.00 | 0.00 | 0.00 | 58 | 1015.4 |
| 20260506233941 | 73 | 258 | 5.2 | 11.3 | 0.00 | 0.00 | 0.00 | 58 | 1015.1 |
| 20260506233437 | 73 | 229 | 3.5 | 13.9 | 0.00 | 0.00 | 0.00 | 59 | 1015.2 |
| 20260506232934 | 73 | 211 | 4.3 | 8.7 | 0.00 | 0.00 | 0.00 | 59 | 1015.3 |
| 20260506232430 | 74 | 85 | 2.6 | 8.7 | 0.00 | 0.00 | 0.00 | 58 | 1015.2 |
| 20260506231926 | 74 | 98 | 4.3 | 9.6 | 0.00 | 0.00 | 0.00 | 58 | 1015.2 |
| 20260506231423 | 75 | 172 | 6.1 | 15.6 | 0.00 | 0.00 | 0.00 | 58 | 1015.3 |
| 20260506230920 | 74 | 123 | 7.8 | 12.2 | 0.00 | 0.00 | 0.00 | 58 | 1015.3 |
| 20260506230417 | 74 | 249 | 5.2 | 6.1 | 0.00 | 0.00 | 0.00 | 58 | 1015.2 |
| 20260506225913 | 74 | 145 | 2.6 | 9.6 | 0.00 | 0.00 | 0.00 | 58 | 1015.3 |
| 20260506225411 | 74 | 174 | 3.5 | 8.7 | 0.00 | 0.00 | 0.00 | 58 | 1015.5 |
| 20260506224908 | 74 | 176 | 5.2 | 9.6 | 0.00 | 0.00 | 0.00 | 58 | 1015.4 |
| 20260506224405 | 74 | 117 | 2.6 | 7.0 | 0.00 | 0.00 | 0.00 | 58 | 1015.6 |
| 20260506223901 | 74 | 297 | 4.3 | 7.0 | 0.00 | 0.00 | 0.00 | 58 | 1015.4 |
| 20260506223356 | 75 | 134 | 2.6 | 7.0 | 0.00 | 0.00 | 0.00 | 58 | 1015.6 |
| 20260506222854 | 75 | 257 | 4.3 | 11.3 | 0.00 | 0.00 | 0.00 | 58 | 1015.8 |
| 20260506222350 | 75 | 102 | 2.6 | 7.0 | 0.00 | 0.00 | 0.00 | 57 | 1015.7 |
| 20260506221848 | 75 | 245 | 6.1 | 13.0 | 0.00 | 0.00 | 0.00 | 57 | 1015.8 |
| 20260506221344 | 75 | 248 | 1.7 | 7.8 | 0.00 | 0.00 | 0.00 | 56 | 1015.8 |
| 20260506220842 | 75 | 232 | 5.2 | 9.6 | 0.00 | 0.00 | 0.00 | 56 | 1015.8 |
| 20260506220337 | 75 | 188 | 6.1 | 9.6 | 0.00 | 0.00 | 0.00 | 55 | 1015.8 |
| 20260506215834 | 75 | 243 | 5.2 | 8.7 | 0.00 | 0.00 | 0.00 | 56 | 1016.0 |
| 20260506215330 | 76 | 212 | 5.2 | 7.0 | 0.00 | 0.00 | 0.00 | 54 | 1016.0 |
| 20260506214826 | 75 | 185 | 7.0 | 12.2 | 0.00 | 0.00 | 0.00 | 54 | 1016.3 |
| 20260506214323 | 76 | 51 | 2.6 | 8.7 | 0.00 | 0.00 | 0.00 | 54 | 1016.3 |
| 20260506213822 | 76 | 83 | 2.6 | 7.0 | 0.00 | 0.00 | 0.00 | 54 | 1016.2 |
| 20260506213319 | 77 | 197 | 6.1 | 7.8 | 0.00 | 0.00 | 0.00 | 54 | 1016.3 |
| 20260506212816 | 76 | 41 | 2.6 | 7.0 | 0.00 | 0.00 | 0.00 | 52 | 1016.4 |
| 20260506212311 | 77 | 264 | 3.5 | 6.1 | 0.00 | 0.00 | 0.00 | 52 | 1016.5 |
| 20260506211806 | 77 | 67 | 2.6 | 7.0 | 0.00 | 0.00 | 0.00 | 52 | 1016.2 |
| 20260506211303 | 76 | 10 | 0.9 | 4.3 | 0.00 | 0.00 | 0.00 | 50 | 1016.4 |
| 20260506210801 | 78 | 251 | 6.1 | 7.8 | 0.00 | 0.00 | 0.00 | 48 | 1016.5 |
| 20260506210257 | 78 | 69 | 0.9 | 4.3 | 0.00 | 0.00 | 0.00 | 45 | 1016.4 |
| 20260506205754 | 79 | 72 | 2.6 | 4.3 | 0.00 | 0.00 | 0.00 | 43 | 1016.5 |
| 20260506205250 | 79 | 227 | 4.3 | 5.2 | 0.00 | 0.00 | 0.00 | 41 | 1016.5 |
| 20260506204747 | 77 | 349 | 0.9 | 1.7 | 0.00 | 0.00 | 0.00 | 42 | 1016.5 |
| 20260506204244 | 80 | 327 | 0.9 | 2.6 | 0.00 | 0.00 | 0.00 | 41 | 1016.6 |
| 20260506203742 | 80 | 9 | 0.9 | 4.3 | 0.00 | 0.00 | 0.00 | 42 | 1016.7 |
| 20260506203239 | 80 | 344 | 2.6 | 2.6 | 0.00 | 0.00 | 0.00 | 40 | 1016.9 |
| 20260506202736 | 78 | 343 | 0.0 | 0.9 | 0.00 | 0.00 | 0.00 | 42 | 1016.9 |
| 20260506202233 | 77 | 283 | 0.9 | 4.3 | 0.00 | 0.00 | 0.00 | 43 | 1016.9 |
| 20260506201730 | 77 | 121 | 1.7 | 2.6 | 0.00 | 0.00 | 0.00 | 43 | 1017.0 |
| 20260506201226 | 77 | 42 | 0.0 | 4.3 | 0.00 | 0.00 | 0.00 | 43 | 1016.9 |
| 20260506200723 | 78 | 3 | 4.3 | 6.1 | 0.00 | 0.00 | 0.00 | 43 | 1017.1 |
| 20260506200220 | 77 | 338 | 0.9 | 0.9 | 0.00 | 0.00 | 0.00 | 45 | 1017.0 |
| 20260506195716 | 77 | 19 | 4.3 | 5.2 | 0.00 | 0.00 | 0.00 | 44 | 1017.3 |
| 20260506195212 | 76 | 338 | 0.0 | 0.9 | 0.00 | 0.00 | 0.00 | 46 | 1017.3 |
| 20260506194705 | 75 | 128 | 2.6 | 2.6 | 0.00 | 0.00 | 0.00 | 45 | 1017.5 |
| 20260506194201 | 74 | 67 | 0.9 | 4.3 | 0.00 | 0.00 | 0.00 | 47 | 1017.5 |
| 20260506193658 | 75 | 356 | 0.9 | 4.3 | 0.00 | 0.00 | 0.00 | 47 | 1017.6 |
| 20260506193155 | 75 | 44 | 0.0 | 2.6 | 0.00 | 0.00 | 0.00 | 47 | 1017.7 |
| 20260506192652 | 76 | 349 | 0.9 | 0.9 | 0.00 | 0.00 | 0.00 | 46 | 1017.8 |
| 20260506192148 | 73 | 333 | 0.9 | 1.7 | 0.00 | 0.00 | 0.00 | 48 | 1017.9 |
| 20260506191645 | 74 | 14 | 0.9 | 2.6 | 0.00 | 0.00 | 0.00 | 47 | 1018.0 |
| 20260506191141 | 75 | 8 | 0.9 | 2.6 | 0.00 | 0.00 | 0.00 | 47 | 1018.0 |
| 20260506190639 | 74 | 64 | 0.0 | 0.9 | 0.00 | 0.00 | 0.00 | 47 | 1018.1 |
| 20260506190135 | 73 | 17 | 0.9 | 0.9 | 0.00 | 0.00 | 0.00 | 49 | 1018.1 |
| 20260506185633 | 71 | 264 | 0.9 | 2.6 | 0.00 | 0.00 | 0.00 | 50 | 1018.3 |
| 20260506185129 | 71 | 4 | 0.0 | 2.6 | 0.00 | 0.00 | 0.00 | 50 | 1018.2 |
| 20260506184626 | 71 | 326 | 1.7 | 5.2 | 0.00 | 0.00 | 0.00 | 50 | 1018.3 |
| 20260506184123 | 71 | 344 | 3.5 | 5.2 | 0.00 | 0.00 | 0.00 | 50 | 1018.4 |
| 20260506183620 | 71 | 344 | 0.0 | 0.9 | 0.00 | 0.00 | 0.00 | 50 | 1018.2 |